Temp
62 62 61 61 61 61 61 61 61 61 62 62 61 61 61 61 60 69 68 78 79 71 69 86 84 86 88 86 90 91 76 73 78 80 84 95 90 94 98 95 95 98 97 100 101
61 62 61 61 61 60 60 61 61 61 61 61 61 61 61 60 66 71 81 71 71 70 77 82 80 84 82 83 86 80 74 76 86 89 87 90 90 91 90 90 90 94 98 100 100
61 61 60 60 61 60 60 60 60 61 61 61 61 60 60 64 68 80 76 71 69 72 83 88 88 84 79 84 83 81 74 84 86 88 89 86 87 91 87 85 91 91 96 98 98
60 60 60 60 60 60 60 60 60 61 61 61 60 60 60 67 62 83 72 71 69 80 79 85 84 79 77 77 84 76 82 83 86 85 84 81 86 84 87 87 95 96 98 95 95
60 60 60 59 59 59 59 60 60 60 60 60 60 60 62 63 69 85 70 73 75 78 79 82 79 80 75 80 82 78 80 84 85 85 85 85 82 83 85 91 94 96 96 94 94
59 59 59 59 59 59 59 59 59 59 59 60 60 60 60 58 88 86 85 78 82 80 83 85 82 85 81 80 79 82 81 81 85 83 84 81 82 83 85 91 89 90 91 93 93
59 59 58 59 58 59 58 58 58 58 59 60 60 61 58 66 88 91 86 84 87 85 82 87 88 82 81 77 84 82 74 78 80 82 80 83 76 77 86 89 87 87 88 90 92
59 58 58 58 58 58 58 58 57 58 59 61 61 60 56 85 86 85 88 84 88 88 86 88 88 82 80 84 77 73 74 68 80 81 82 80 69 82 88 86 84 86 87 89 91
58 58 58 58 58 58 58 57 58 59 60 60 62 56 62 76 76 85 87 81 84 84 85 86 84 77 78 71 66 71 65 69 75 83 81 77 71 82 88 86 84 85 85 87 90
58 57 57 58 58 58 57 56 60 59 61 65 64 55 67 71 80 81 86 84 78 78 76 75 75 71 73 69 59 65 64 70 71 79 78 76 74 80 85 85 83 84 85 86 89
58 58 57 57 57 57 58 69 63 51 56 64 67 67 78 82 86 80 83 80 79 75 66 71 66 63 69 72 73 75 73 70 75 80 75 74 74 79 84 85 83 83 84 85 88
58 58 57 57 57 57 58 63 71 74 62 68 69 74 77 83 72 77 83 71 70 64 70 67 62 72 75 75 73 72 69 69 74 78 75 73 73 79 83 83 84 83 84 85 88
57 57 56 57 56 60 64 68 78 77 61 68 75 73 74 78 72 73 77 74 68 65 67 64 69 75 74 72 69 69 67 68 68 75 76 73 69 74 82 84 85 85 86 88 88
56 56 56 56 59 70 67 78 81 79 55 63 72 74 79 76 68 82 80 74 71 65 69 69 75 72 71 69 71 63 73 71 69 67 61 75 60 73 77 78 81 83 85 87 89
56 56 56 55 58 61 73 80 80 71 39 70 72 83 78 70 73 72 81 75 68 68 69 66 68 68 68 69 73 67 75 71 70 66 66 67 64 71 78 74 78 82 85 87 89
56 56 56 62 66 68 74 75 71 51 40 63 72 67 68 69 70 77 73 78 77 71 72 71 79 76 72 75 75 75 71 69 69 66 56 65 65 67 71 75 79 83 85 87 89
55 55 56 65 62 77 77 68 49 43 65 61 65 71 68 65 65 69 64 63 62 56 58 66 69 76 76 70 74 71 64 54 52 53 53 68 65 67 73 78 81 80 85 86 86
54 53 61 73 76 74 67 56 40 54 58 68 66 66 52 59 65 66 61 58 67 66 59 55 55 69 75 71 67 67 65 57 46 49 57 68 58 67 79 82 82 84 84 85 84
52 69 71 77 75 72 59 45 48 55 63 62 65 60 58 65 52 52 63 60 66 66 56 56 57 73 74 75 74 67 62 71 60 61 55 55 66 74 76 78 80 81 81 81 83
59 64 71 77 74 62 51 46 55 64 66 65 55 52 51 56 51 46 54 67 65 69 72 64 55 69 72 76 75 71 74 58 62 46 43 51 55 58 69 74 78 78 79 80 82
60 60 69 73 68 47 43 53 61 68 68 60 57 55 59 46 43 46 47 61 68 68 71 68 61 61 70 66 65 67 65 65 64 60 48 47 55 70 67 75 75 78 79 79 80
59 53 73 72 46 48 48 49 48 60 67 64 64 52 49 49 44 42 44 54 59 67 62 67 58 47 62 73 75 72 67 66 56 48 57 56 51 73 70 75 79 80 80 80 80
47 57 74 70 42 46 52 51 55 56 60 60 54 58 60 48 45 48 49 53 52 57 63 66 57 47 45 58 69 65 67 68 66 58 53 43 50 70 73 75 77 77 79 79 79
46 48 60 58 54 42 46 51 52 56 53 49 51 54 54 52 57 48 48 47 56 63 57 68 61 56 48 53 63 60 63 64 56 42 48 51 54 59 63 67 70 75 77 77 76
46 46 45 41 49 51 51 50 50 44 49 49 49 55 50 47 49 46 51 50 56 60 66 66 56 59 53 61 60 58 64 62 61 62 54 60 57 53 62 71 74 76 75 74 73
41 39 42 41 51 49 48 45 45 45 48 44 41 47 51 39 50 38 46 49 46 58 63 63 53 55 47 59 59 56 61 62 63 62 63 64 59 66 72 73 70 70 73 72 72
49 47 42 40 47 46 46 41 44 51 49 48 46 46 43 41 53 57 55 55 49 50 56 56 52 50 47 57 53 48 59 59 63 66 65 60 67 74 71 71 72 70 71 69 70
MSLP
1020.04 1019.67 1019.38 1019.11 1018.84 1018.51 1018.15 1017.81 1017.44 1017.06 1016.71 1016.35 1016.11 1015.89 1015.64 1015.25 1014.61 1013.54 1011.38 1009.53 1009.59 1010.37 1010.95 1009.09 1009.09 1008.44 1007.84 1006.46 1005.84 1005.30 1003.73 1001.59 1000.45 999.85 999.22 998.85 999.01 1000.03 1000.43 1000.09 999.96 1000.14 1000.34 1000.52 1000.81
1019.97 1019.64 1019.33 1018.98 1018.64 1018.33 1018.01 1017.66 1017.30 1016.99 1016.64 1016.32 1016.07 1015.77 1015.48 1015.11 1013.65 1010.61 1008.14 1008.73 1009.29 1010.13 1010.16 1008.08 1007.53 1007.47 1006.66 1005.84 1005.17 1004.54 1003.19 1001.44 1000.70 999.92 999.44 999.27 999.87 1000.28 1000.47 1000.29 1000.60 1000.40 1000.63 1001.20 1001.30
1019.88 1019.49 1019.20 1018.82 1018.41 1018.08 1017.74 1017.41 1017.10 1016.80 1016.44 1016.13 1015.90 1015.69 1015.47 1014.96 1011.91 1006.55 1006.71 1007.86 1008.83 1009.44 1008.91 1007.28 1006.54 1006.47 1005.74 1004.84 1004.27 1004.12 1002.66 1001.57 1001.20 1000.83 1000.82 1000.71 1000.60 1000.76 1000.70 1000.10 1000.03 999.97 1000.10 1000.45 1001.02
1019.80 1019.36 1019.01 1018.64 1018.30 1017.93 1017.59 1017.25 1016.90 1016.49 1016.25 1016.07 1015.82 1015.54 1015.36 1014.39 1009.35 1006.21 1007.33 1007.90 1008.58 1008.65 1008.63 1006.82 1005.97 1005.43 1004.76 1003.77 1003.55 1003.31 1002.74 1002.53 1001.55 1001.61 1002.18 1002.14 1001.99 1001.37 1000.99 1001.01 1000.73 1000.62 1000.50 1000.86 1001.33
1019.76 1019.29 1018.91 1018.56 1018.18 1017.74 1017.36 1016.99 1016.56 1016.24 1015.98 1015.74 1015.49 1015.48 1015.14 1012.15 1007.65 1006.48 1007.58 1008.04 1008.66 1008.18 1007.20 1006.05 1005.30 1004.60 1003.64 1003.18 1003.03 1002.78 1002.59 1002.33 1002.37 1002.07 1002.12 1002.32 1001.98 1001.61 1001.28 1001.32 1001.48 1001.10 1000.72 1001.21 1001.68
1019.62 1019.27 1018.89 1018.38 1017.90 1017.40 1016.92 1016.42 1016.12 1015.85 1015.48 1015.21 1015.12 1015.26 1014.26 1010.00 1005.76 1006.14 1006.75 1007.65 1007.03 1007.10 1005.94 1005.23 1004.51 1004.20 1003.43 1002.77 1002.43 1002.43 1002.54 1002.39 1001.90 1002.05 1002.04 1001.97 1001.64 1001.60 1001.48 1001.64 1001.68 1001.76 1001.34 1001.40 1001.58
1019.52 1019.08 1018.62 1018.13 1017.72 1017.18 1016.68 1016.09 1015.62 1015.21 1014.93 1014.62 1014.50 1014.65 1012.66 1007.81 1005.28 1005.17 1006.10 1006.24 1005.88 1005.78 1005.19 1004.82 1004.39 1004.20 1003.87 1002.98 1002.67 1002.50 1002.58 1002.08 1001.63 1001.48 1001.42 1001.77 1001.11 1000.58 1001.02 1001.10 1001.00 1001.60 1001.92 1002.01 1001.93
1018.93 1018.53 1018.05 1017.56 1017.02 1016.46 1015.96 1015.45 1015.05 1014.53 1013.95 1013.73 1014.02 1013.86 1010.15 1005.38 1005.94 1005.47 1005.23 1005.52 1005.64 1005.47 1005.31 1004.92 1004.79 1004.52 1003.76 1003.08 1002.97 1002.74 1002.29 1000.93 1000.00 1000.49 1000.96 1001.54 1000.08 999.87 999.90 1000.23 1000.41 1000.77 1001.34 1001.34 1001.49
1018.59 1018.18 1017.76 1017.22 1016.71 1016.05 1015.45 1014.76 1014.26 1013.92 1013.46 1013.09 1013.28 1012.91 1007.57 1005.27 1005.20 1004.64 1004.49 1004.58 1005.04 1005.36 1005.38 1005.32 1004.91 1004.54 1003.93 1003.19 1002.71 1001.68 1000.45 999.79 998.72 999.19 999.81 1000.39 999.88 999.37 999.14 999.22 999.64 1000.15 1000.76 1000.87 1000.82
1018.43 1017.89 1017.29 1016.86 1016.34 1015.85 1015.32 1014.35 1013.35 1013.20 1012.97 1012.77 1011.68 1011.37 1006.24 1003.76 1003.43 1004.31 1004.37 1004.50 1004.83 1004.94 1005.14 1005.12 1004.72 1003.79 1002.79 1001.99 1000.38 999.78 999.82 998.68 998.05 998.35 999.42 999.33 999.27 999.16 998.80 998.58 999.11 999.42 999.84 1000.07 999.99
1017.99 1017.40 1016.88 1016.35 1015.77 1015.20 1014.48 1012.21 1011.95 1012.01 1011.42 1007.93 1006.41 1004.86 1002.48 1002.41 1002.44 1003.41 1003.97 1004.12 1004.38 1004.31 1003.60 1003.78 1003.14 1001.60 1001.04 1000.77 1000.12 998.64 997.97 997.95 998.02 998.25 998.73 998.79 998.59 998.03 997.81 997.74 998.10 998.64 999.07 999.39 999.33
1017.59 1017.28 1016.66 1015.88 1015.09 1014.68 1014.38 1011.43 1008.84 1007.96 1006.43 1005.72 1004.81 1003.41 1002.64 1001.66 1001.86 1002.26 1003.50 1003.46 1003.21 1002.72 1002.79 1002.61 1001.11 1000.49 1000.50 1000.03 999.71 999.00 998.39 998.01 998.25 998.37 998.71 998.48 997.95 997.52 997.18 997.23 997.52 997.92 998.27 998.55 998.80
1017.33 1016.86 1016.24 1015.30 1014.09 1012.95 1011.85 1010.03 1008.79 1008.40 1005.91 1002.64 1001.53 1000.76 1000.84 1001.34 1000.61 1000.59 1002.30 1002.38 1002.00 1001.81 1001.34 1000.25 999.59 999.97 999.46 999.13 999.24 999.18 998.82 998.63 998.45 998.26 998.64 998.46 997.62 997.00 996.58 996.81 997.21 997.66 997.88 997.81 998.16
1017.15 1016.60 1016.03 1015.23 1013.15 1011.23 1009.79 1008.14 1007.67 1007.21 1004.59 999.15 997.70 998.06 998.37 999.86 999.42 999.53 1000.78 1001.37 1000.77 1000.50 1000.26 999.66 998.99 998.58 998.41 998.56 998.98 998.68 999.11 998.93 998.81 998.69 997.79 997.13 996.09 994.95 995.73 996.14 996.72 997.18 997.38 997.22 997.53
1016.42 1016.07 1015.71 1015.72 1014.25 1011.43 1009.20 1008.60 1008.20 1007.78 1002.84 996.61 996.30 997.06 997.33 997.94 997.33 998.52 999.71 1000.35 999.34 999.44 999.54 998.31 998.15 997.97 997.73 998.22 998.57 998.49 998.66 998.91 999.07 998.99 998.60 997.29 996.62 994.74 995.06 995.49 995.75 996.50 996.82 997.05 997.34
1015.75 1015.12 1014.80 1013.23 1011.85 1010.43 1009.45 1009.12 1008.66 1006.29 1000.27 996.55 995.70 996.64 996.78 997.26 997.44 996.92 998.64 999.81 999.55 998.77 998.33 997.62 997.54 997.22 997.50 997.87 998.20 998.85 999.02 999.09 999.15 998.92 997.97 997.06 995.89 994.22 994.51 994.92 994.79 995.47 996.32 996.69 997.10
1014.87 1014.04 1013.50 1012.55 1010.06 1008.47 1008.30 1008.25 1006.66 1002.91 998.82 996.40 995.34 994.93 995.64 995.99 996.89 996.12 997.52 998.28 998.00 997.97 997.20 997.37 996.73 996.88 997.22 997.36 997.96 998.50 998.56 998.38 998.33 997.97 996.99 996.30 995.58 994.33 995.52 995.66 995.13 995.74 996.05 997.10 998.13
1014.35 1013.06 1010.99 1009.37 1008.62 1009.13 1009.15 1007.30 1003.66 1000.67 998.74 997.10 995.61 995.45 996.26 996.42 996.19 995.85 996.76 996.99 997.76 997.29 997.01 996.48 996.17 995.97 996.51 996.46 996.70 997.34 997.79 996.99 996.54 996.65 996.27 995.95 995.34 994.66 994.75 995.83 996.15 996.39 997.09 997.83 998.80
1013.54 1010.39 1008.47 1006.96 1008.25 1008.23 1008.11 1005.51 1001.93 1000.20 999.02 997.15 996.19 995.64 995.75 995.93 998.52 998.33 996.23 996.70 996.38 996.79 996.34 995.85 995.56 995.61 995.96 996.64 996.31 996.37 996.77 997.23 996.86 996.96 997.47 997.31 995.60 995.51 995.89 996.46 996.62 997.11 997.99 998.58 999.09
1013.15 1010.00 1006.70 1006.63 1007.62 1008.20 1007.05 1003.78 1001.57 999.72 998.34 997.57 996.56 997.70 997.24 997.48 998.39 1000.00 998.18 995.81 995.79 996.45 996.28 995.63 995.29 995.03 995.40 996.20 996.28 995.83 995.99 996.93 997.07 997.38 997.63 997.28 997.21 995.72 995.36 995.78 996.49 997.16 998.19 999.10 999.77
1011.92 1008.49 1006.88 1007.53 1008.21 1008.38 1006.07 1002.49 1000.12 998.70 998.22 997.70 997.16 997.50 997.12 998.95 1000.10 1000.44 1000.09 997.68 996.55 996.35 996.34 995.99 995.69 995.40 995.12 995.10 995.09 995.74 995.70 996.59 997.06 997.61 997.83 997.76 997.16 997.03 996.63 995.95 996.31 997.27 998.49 999.69 1000.52
1011.88 1008.42 1006.13 1006.92 1007.86 1006.72 1004.90 1003.59 1002.67 999.83 998.35 997.63 997.48 998.30 999.66 999.98 1000.42 1001.62 1000.98 999.73 998.84 997.01 996.37 996.18 997.01 996.60 994.88 994.82 995.10 994.94 995.71 996.35 996.88 998.47 998.41 998.29 998.58 998.32 998.03 996.83 996.88 997.18 998.66 1000.39 1001.15
1012.45 1008.46 1005.16 1005.62 1006.32 1005.48 1004.54 1003.64 1002.17 1000.52 999.39 998.87 999.15 998.90 998.42 999.61 1000.55 1000.87 1001.52 1001.62 1000.92 999.19 996.35 996.19 996.40 996.49 997.32 996.93 995.41 995.38 996.02 996.47 997.21 998.92 998.67 1000.65 999.98 999.52 998.83 998.18 997.87 998.16 998.85 1000.31 1001.67
1013.09 1008.89 1005.85 1006.27 1006.63 1006.57 1005.20 1003.12 1001.77 1001.83 1001.55 1001.90 1000.47 999.91 999.06 999.57 999.38 1000.27 1001.33 1001.76 1000.45 997.74 996.65 995.34 995.58 995.77 996.19 996.19 995.99 995.88 996.23 997.29 998.22 999.42 999.85 999.75 999.94 1000.32 1000.41 999.73 999.40 999.52 1000.32 1001.07 1002.85
1013.41 1010.95 1010.97 1008.73 1007.12 1006.29 1005.36 1004.22 1002.64 1002.78 1002.86 1002.67 1001.03 1000.34 1000.28 1000.00 1000.04 1000.60 1000.81 1001.12 1000.28 998.04 996.40 995.51 995.78 996.60 997.44 997.34 997.19 997.23 996.16 996.95 997.20 997.44 998.28 998.46 999.23 1000.91 1000.03 998.95 999.46 1000.18 1001.47 1002.49 1003.98
1014.02 1013.40 1012.39 1010.95 1008.43 1006.89 1005.71 1005.14 1004.27 1003.86 1003.26 1003.01 1002.90 1001.75 1000.99 1001.47 1000.33 1000.99 1000.94 1000.52 1000.25 998.81 996.75 996.39 996.96 997.36 998.56 997.89 997.96 997.80 997.60 997.59 997.48 997.87 997.65 997.88 998.50 999.80 999.99 999.80 1000.23 1001.30 1002.15 1003.15 1004.44
1014.74 1014.37 1013.51 1011.40 1009.06 1007.58 1006.44 1006.43 1005.33 1004.00 1003.75 1003.47 1003.29 1002.66 1002.60 1003.04 1000.68 1000.35 1000.86 1000.77 1001.01 1000.16 998.40 998.26 997.95 997.98 998.21 998.33 998.80 998.65 997.44 997.68 997.35 997.34 997.44 997.43 997.78 998.12 998.72 999.85 1000.34 1002.18 1002.80 1004.01 1005.09
Wind_Speed
14 14 14 13 13 13 14 13 14 14 14 14 14 15 14 16 18 18 20 14 4 11 6 11 17 17 17 18 19 18 17 19 24 22 18 18 10 10 17 22 7 10 13 6 4
15 15 15 15 14 14 14 15 15 15 15 14 14 15 16 16 21 24 25 13 11 10 17 16 18 18 17 18 17 16 16 24 18 17 16 11 13 12 14 12 15 18 9 7 8
15 15 16 15 15 14 14 15 16 15 15 14 14 14 15 18 22 16 5 20 18 17 22 16 15 18 21 17 20 20 21 17 19 10 11 13 14 10 16 17 15 15 13 8 9
15 16 15 16 16 17 16 17 16 16 16 16 15 13 12 16 11 11 6 20 20 18 18 19 16 21 21 23 19 21 19 21 20 5 13 17 16 18 16 17 17 15 14 1 7
15 15 15 16 17 17 16 18 17 16 16 16 16 12 13 13 21 4 13 18 17 19 21 19 20 20 22 19 19 22 21 15 19 17 15 15 18 18 18 16 16 19 11 11 10
14 16 17 17 16 16 17 16 16 15 17 17 15 8 12 23 18 16 12 19 18 22 19 19 14 18 18 20 17 17 17 21 17 17 18 20 19 20 20 17 16 18 19 14 12
16 16 17 17 18 17 17 16 14 16 19 18 13 9 17 25 3 10 14 18 18 18 16 15 14 13 11 17 15 17 13 16 18 18 18 15 21 23 19 19 21 20 21 20 20
15 14 16 18 18 17 17 16 17 19 18 13 8 10 13 10 23 15 17 18 17 16 16 11 13 14 19 12 5 16 19 19 21 22 19 16 17 17 17 20 22 23 19 21 22
14 15 17 20 21 20 19 18 20 20 9 7 11 8 13 5 15 21 17 19 17 14 13 11 13 16 17 18 13 16 18 22 21 10 12 17 15 14 14 14 16 21 19 22 22
14 15 16 18 21 22 21 24 17 7 6 7 7 8 12 17 13 18 19 16 18 17 15 14 13 17 18 16 17 20 19 21 17 17 11 14 18 14 15 11 13 17 19 21 23
15 15 18 19 20 19 19 13 8 8 10 13 16 14 13 9 13 20 22 17 21 19 18 21 19 21 24 23 22 20 19 19 15 12 7 11 13 16 14 13 12 14 18 19 22
17 17 21 22 23 21 14 9 13 12 17 26 27 24 24 13 13 17 24 21 20 21 24 17 23 24 24 24 22 20 13 10 8 10 8 12 14 14 12 8 11 14 14 19 22
15 16 19 23 24 15 11 17 18 17 13 21 26 31 28 27 20 22 28 28 23 26 26 21 19 26 23 19 19 18 17 16 14 15 13 13 17 18 15 10 10 9 14 16 19
17 17 17 21 18 12 15 8 8 11 14 19 23 19 28 23 32 22 30 30 18 26 26 24 24 25 19 21 17 18 18 15 11 11 12 12 13 10 12 11 11 13 13 15 16
18 18 17 9 16 11 14 10 12 8 11 8 13 6 8 29 11 33 30 32 25 22 22 24 24 16 23 20 19 15 12 15 16 16 15 17 10 10 10 11 14 14 15 13 12
22 21 18 15 12 19 16 12 8 11 15 7 12 12 16 25 31 27 29 30 26 24 24 25 21 19 16 19 18 14 13 11 12 13 16 19 16 12 6 7 10 15 15 14 8
26 26 21 14 10 12 11 9 11 14 8 17 23 17 20 19 26 22 31 30 28 27 23 23 26 19 17 21 18 15 12 11 13 14 14 18 17 4 13 3 4 4 12 9 5
28 32 18 13 13 11 11 12 20 12 27 22 18 10 16 25 25 27 29 25 32 26 17 20 25 24 16 21 22 23 18 12 17 14 15 19 10 2 14 9 6 8 6 9 11
33 12 11 5 3 6 9 16 20 25 27 28 20 25 22 9 8 13 24 27 30 30 25 19 24 26 22 19 20 19 21 18 19 12 9 9 9 14 13 10 10 11 10 11 12
12 16 13 8 6 6 11 22 26 27 26 25 26 13 28 13 13 6 14 24 26 31 24 22 17 21 25 22 22 22 19 18 13 12 16 13 13 12 19 16 12 13 10 11 13
11 9 9 7 5 4 12 21 24 21 23 24 25 18 19 10 2 9 9 17 21 26 26 23 12 17 15 20 22 19 16 14 12 13 10 11 8 14 10 5 12 12 13 13 14
9 10 8 9 5 6 11 14 17 21 20 21 18 10 29 3 4 10 7 10 18 18 26 19 12 8 24 20 22 20 20 18 10 10 11 11 2 10 7 7 10 14 17 13 14
7 15 11 3 7 10 11 16 24 20 15 21 9 20 15 14 12 13 7 8 12 34 27 24 11 13 3 11 11 15 16 18 10 4 9 7 4 11 10 5 6 10 16 16 13
6 7 6 4 7 5 18 19 14 9 11 19 12 17 11 14 10 9 12 3 21 22 14 22 17 17 11 6 16 19 19 25 13 3 10 10 14 10 13 11 4 3 10 12 9
4 6 8 9 16 21 19 21 17 10 4 6 9 16 5 7 7 11 14 16 14 12 8 15 19 14 6 10 4 7 18 7 15 8 10 8 17 14 21 15 10 9 10 13 12
5 5 3 12 17 20 14 13 14 17 6 9 13 6 9 4 8 6 6 6 2 5 8 3 12 12 15 14 7 5 9 9 11 13 13 12 5 14 11 5 8 11 13 13 11
4 3 6 8 14 15 11 11 18 17 4 6 8 10 8 10 3 8 14 10 4 5 7 8 8 12 9 10 5 11 16 15 13 14 9 11 8 8 6 8 9 12 7 6 7
Wind_Direction
334 332 328 327 323 320 317 312 309 309 307 306 312 314 309 305 297 258 250 240 195 179 230 236 205 218 231 233 225 225 246 241 243 246 248 255 239 227 258 251 259 253 231 2 43
331 330 329 324 324 322 318 314 308 307 306 308 309 312 310 309 290 273 253 147 152 165 214 204 197 204 215 220 208 226 229 243 246 258 263 251 251 255 247 235 235 246 199 239 228
331 329 327 324 322 319 318 316 313 308 305 302 301 306 307 308 289 255 68 158 159 178 230 216 205 206 223 219 209 219 243 242 246 267 284 285 266 253 248 249 232 224 232 179 215
331 328 327 326 322 321 320 319 316 311 309 304 297 298 301 289 265 69 130 172 171 189 219 220 220 206 223 226 229 232 241 245 266 241 238 257 266 263 251 253 266 252 255 23 243
328 326 327 324 321 318 312 311 308 305 305 300 294 290 279 234 248 213 123 160 178 190 207 209 217 212 221 231 226 231 239 236 245 256 248 251 250 256 250 250 253 269 231 214 257
327 328 324 321 319 315 309 307 305 305 301 295 283 257 246 257 259 140 159 167 180 193 205 211 218 220 235 243 230 238 236 254 246 242 244 249 254 251 243 248 245 254 264 247 252
336 331 329 325 321 316 311 308 304 301 301 296 268 228 256 242 239 185 190 196 188 204 209 217 231 247 235 253 243 242 250 245 243 241 243 251 255 254 259 254 232 232 242 247 241
330 325 323 322 318 312 307 300 301 300 299 287 209 216 255 272 234 250 195 203 209 205 232 238 237 249 242 239 225 228 232 247 229 215 226 227 256 253 234 235 238 233 235 239 230
325 321 320 319 318 313 309 300 295 290 292 174 177 227 262 121 223 219 224 202 195 208 213 237 224 225 216 241 226 216 234 221 242 176 218 196 248 244 244 238 235 236 224 242 225
318 316 313 315 312 315 307 293 291 262 218 205 271 206 237 238 211 209 206 197 195 191 191 200 205 215 221 211 223 214 216 252 214 170 188 234 233 254 267 235 237 238 229 235 226
300 308 310 313 307 305 309 293 194 188 213 220 196 224 296 216 137 190 194 186 194 194 194 197 203 209 207 215 231 241 227 224 203 223 207 247 260 258 258 250 236 230 228 233 228
309 311 316 312 309 304 294 252 306 325 288 222 249 241 248 266 192 192 189 192 196 203 206 182 214 213 224 215 229 249 247 229 243 236 233 271 260 260 256 250 245 244 230 231 219
316 313 312 311 304 286 242 275 285 295 265 264 241 230 232 225 228 185 189 201 200 206 207 208 212 222 212 218 215 228 227 226 241 210 212 267 259 246 238 225 215 244 227 217 202
312 309 310 318 287 350 288 313 266 273 270 268 219 236 224 215 225 225 189 202 197 213 212 222 231 196 208 219 209 218 218 248 250 255 252 274 253 192 210 186 208 210 221 225 191
303 302 304 303 299 280 304 329 328 285 273 313 122 122 212 198 170 211 178 205 216 213 220 210 234 200 207 210 207 230 211 222 224 231 256 254 235 288 165 197 197 211 211 219 222
309 302 303 283 246 251 258 280 269 234 248 250 152 197 209 200 224 184 182 213 222 221 222 226 208 213 207 210 212 218 231 239 245 243 237 243 253 234 169 230 190 190 205 213 206
308 303 297 278 255 354 312 215 230 239 280 235 244 217 206 192 211 226 187 193 211 215 221 213 236 204 219 214 194 206 214 212 210 218 236 231 226 219 155 235 108 237 177 173 164
310 304 277 249 234 225 257 222 240 255 241 269 296 237 177 272 195 218 186 196 210 211 217 217 211 205 203 221 209 210 209 234 208 209 223 223 227 254 139 106 98 109 142 148 172
308 292 281 239 257 207 224 235 248 246 262 279 269 279 262 252 147 340 195 207 202 214 219 207 225 198 201 218 229 189 214 232 266 296 265 331 230 125 157 174 154 140 149 158 142
307 293 273 115 162 218 239 248 269 276 274 270 273 170 276 286 170 192 263 212 207 203 219 235 220 215 193 208 214 243 203 207 234 236 254 175 223 276 169 169 172 154 163 142 136
274 296 89 78 141 211 243 258 259 256 246 259 277 288 268 158 66 253 272 272 233 205 216 226 265 207 194 199 206 201 219 234 231 232 231 262 210 94 8 176 157 163 147 152 136
303 283 112 165 252 219 251 309 290 301 302 300 298 173 262 166 148 212 232 272 319 257 215 220 235 217 205 187 220 200 208 224 200 217 280 270 117 297 148 291 172 152 139 149 159
289 289 260 185 262 298 291 301 294 328 304 298 300 308 274 170 199 196 218 258 311 284 200 206 210 186 56 285 212 193 222 225 226 18 202 238 135 353 360 321 166 149 147 153 144
282 292 355 218 305 327 306 308 307 29 343 351 292 283 234 259 207 171 219 237 260 280 330 202 210 219 204 166 190 207 185 198 163 95 227 223 248 232 273 263 275 204 136 121 147
273 311 16 318 324 314 316 300 324 351 337 295 283 234 315 270 180 230 222 198 264 318 240 208 209 227 86 159 115 237 224 214 250 220 257 238 189 223 247 189 162 122 144 135 136
307 336 293 297 312 313 313 347 344 323 333 346 316 311 294 252 211 143 295 172 201 258 209 115 195 256 134 176 173 241 226 247 232 252 257 258 176 280 153 103 101 148 167 164 157
329 273 279 295 308 306 319 303 309 315 343 205 301 303 39 339 298 150 183 185 172 278 162 176 162 196 198 168 165 220 220 223 237 216 239 252 250 208 194 160 146 173 160 161 133